Theta_e
323 322 320 320 320 320 320 321 322 324 323 322 321 325 324 325 325 319 311 319 322 330 325 312 314 311 308 303 303 303 296 293 295 297 299 298 297 301 304 306 308 313 312 314 320
323 322 322 320 321 321 320 321 322 323 323 323 321 321 324 325 315 311 321 328 330 330 317 311 308 307 306 303 302 299 295 296 300 301 300 298 297 300 302 303 305 309 314 319 320
322 322 322 322 321 321 321 321 321 323 324 323 322 321 324 322 306 307 323 326 331 328 315 313 310 307 304 301 301 297 298 300 302 303 301 299 297 300 301 300 305 306 312 316 317
322 322 322 321 321 321 321 321 320 321 322 322 322 321 322 315 289 311 327 327 331 319 314 311 309 305 303 302 303 298 303 300 303 306 304 302 299 297 301 303 303 308 317 317 317
321 320 321 321 321 321 321 320 320 321 322 322 321 321 315 303 303 317 328 327 320 317 311 309 306 305 302 303 304 301 303 307 308 309 307 304 302 299 298 303 305 312 318 317 318
320 320 320 320 320 320 321 320 320 321 322 322 322 322 305 295 313 320 320 318 317 318 310 310 308 308 304 303 303 304 305 306 307 307 307 305 304 300 303 300 307 315 316 317 318
320 319 319 320 320 320 320 320 320 321 321 322 321 314 305 301 315 318 320 317 315 314 310 313 315 309 307 301 305 304 300 303 303 306 306 306 299 295 305 300 303 311 314 317 319
319 319 319 319 319 319 319 319 319 320 321 321 320 306 296 308 316 317 318 317 320 318 318 314 315 309 306 307 303 299 298 296 299 304 306 303 299 304 302 298 299 303 310 315 317
317 318 318 318 318 318 318 318 318 319 319 319 308 305 297 313 307 312 315 312 317 316 317 317 315 305 304 299 294 295 291 293 296 302 302 298 294 303 304 296 297 297 303 312 316
316 317 318 318 318 318 318 317 316 315 313 312 309 300 301 298 305 311 311 315 312 312 309 306 305 301 301 298 286 288 289 291 290 297 295 294 293 296 299 297 296 298 298 304 313
316 317 317 318 318 318 315 308 300 297 302 294 297 294 297 305 310 307 311 311 310 306 297 302 296 292 295 297 295 291 288 286 292 297 295 295 296 298 299 300 297 297 299 296 305
315 316 316 317 318 317 311 300 299 297 291 299 298 298 301 306 299 304 311 301 301 294 297 297 291 295 298 298 296 295 292 289 292 296 295 293 294 298 299 300 302 303 299 300 297
313 315 316 317 317 313 306 302 302 299 287 291 299 298 299 301 296 299 306 300 295 293 294 289 289 296 295 293 292 292 291 291 291 293 294 292 291 293 297 302 303 305 302 301 300
312 314 315 317 310 308 303 306 304 298 279 284 291 295 299 299 292 303 307 299 293 291 290 291 294 291 290 291 293 288 292 292 291 289 283 290 281 289 291 296 300 303 304 303 301
311 313 314 316 308 303 306 306 302 296 271 284 290 300 299 294 293 299 306 299 291 290 290 285 289 289 288 289 293 289 293 291 290 288 287 286 284 284 290 290 295 301 303 305 305
307 311 313 311 310 309 308 304 299 278 270 278 290 290 292 293 291 300 300 302 297 292 290 287 292 292 290 293 294 294 290 291 292 290 282 285 285 284 287 290 293 299 302 303 306
307 308 306 309 304 310 306 297 281 273 280 280 284 289 289 289 289 293 293 292 288 285 285 287 289 291 295 291 292 293 289 278 279 279 277 284 285 286 290 293 294 296 300 302 304
307 307 305 307 309 308 301 286 276 278 274 284 285 287 284 287 288 287 289 287 291 284 280 282 274 289 293 292 290 290 289 280 271 272 277 282 283 288 295 298 300 300 301 302 301
307 302 300 304 309 306 293 279 279 280 280 283 285 282 282 285 285 287 283 286 289 287 280 278 278 287 290 292 293 288 287 291 283 278 279 281 284 290 295 296 295 295 298 300 302
298 297 297 304 308 300 287 283 283 284 287 286 278 281 278 281 278 284 283 286 285 291 287 283 278 285 288 293 293 290 291 284 286 276 275 278 279 282 288 290 292 293 296 299 302
296 290 298 304 303 292 282 283 284 286 289 284 281 280 279 280 281 281 281 285 288 287 290 286 282 281 288 286 285 288 286 288 287 283 276 274 278 289 290 293 294 296 297 299 300
293 283 299 302 287 285 283 285 289 285 288 286 285 283 282 283 281 281 281 284 289 290 285 288 283 273 281 286 290 290 287 286 281 279 284 282 282 294 292 290 292 294 296 298 297
286 286 298 298 280 282 285 285 287 285 287 285 284 285 285 283 281 283 282 288 290 288 286 288 282 271 275 281 285 286 288 289 288 286 281 279 281 294 292 291 293 293 294 294 291
285 281 288 291 289 285 284 283 284 288 287 286 286 287 285 283 284 283 284 288 291 290 294 292 285 279 274 277 284 284 286 288 287 282 282 283 284 290 292 291 295 298 295 288 290
285 283 285 281 283 284 285 285 283 283 287 288 286 285 284 281 282 282 285 288 289 293 293 290 279 284 285 285 285 286 286 286 285 287 283 285 286 290 292 294 295 298 299 293 291
284 284 286 284 285 284 285 283 283 284 285 284 283 285 285 282 285 281 286 285 285 288 289 290 276 283 281 283 284 282 285 287 287 287 288 288 287 294 296 293 288 288 287 288 290
289 291 287 286 284 283 284 285 284 286 282 288 287 285 283 284 287 289 289 288 286 287 285 285 282 277 272 280 279 273 280 283 286 289 288 285 290 294 293 294 296 297 294 289 290
Wind_Speed
16 15 15 14 12 12 11 10 7 8 6 3 2 5 3 1 4 3 4 5 2 3 6 4 4 3 3 3 2 2 4 5 6 6 4 1 2 2 2 5 2 5 5 2 9
18 16 16 16 14 13 11 9 7 7 7 5 3 2 3 1 3 6 6 5 2 3 3 0 2 1 1 1 1 3 4 10 8 7 3 1 3 3 4 4 3 3 1 5 12
19 19 17 17 15 14 13 11 9 7 8 7 5 4 5 3 3 6 4 5 5 2 0 1 2 2 2 0 2 3 6 2 4 4 5 1 1 3 5 3 8 8 6 9 8
20 20 19 18 17 16 14 13 9 7 8 9 7 5 4 3 7 3 10 4 7 4 4 3 2 4 4 4 1 3 6 3 5 7 2 4 1 2 6 8 3 10 9 10 13
21 20 19 19 18 17 15 14 12 9 9 9 8 7 3 2 7 4 5 7 5 4 5 5 4 4 5 5 2 3 4 1 3 6 4 6 6 7 6 11 2 4 10 15 15
22 21 20 20 19 18 17 15 12 9 10 10 10 9 2 5 2 4 2 3 2 4 2 4 5 4 2 2 5 1 2 7 3 4 3 2 6 3 7 4 4 8 12 12 16
23 22 21 20 20 19 17 15 13 10 8 13 12 4 2 10 2 1 2 1 1 1 4 2 0 2 5 1 1 1 4 8 4 4 6 5 8 10 15 6 9 9 8 10 15
22 22 23 22 21 20 19 17 13 10 9 11 10 2 6 2 6 4 2 2 0 1 2 1 3 4 1 2 2 3 1 5 1 6 6 8 13 4 13 8 11 11 9 11 14
23 24 25 24 22 21 19 17 13 11 10 9 3 3 5 6 4 4 2 5 2 0 4 1 1 2 1 3 2 3 3 6 6 9 5 9 1 4 4 6 10 9 10 12 12
21 25 27 26 24 22 20 16 11 7 4 4 2 2 2 5 5 7 4 7 4 5 3 2 3 3 3 7 10 8 5 2 3 5 3 6 9 6 9 6 11 11 10 12 14
20 23 23 25 27 25 19 8 7 2 7 6 6 3 2 1 4 3 4 5 5 3 7 4 6 12 13 12 6 3 1 2 4 4 5 8 15 9 12 12 11 14 16 10 15
24 22 27 28 28 28 17 11 17 7 10 9 3 1 1 4 4 8 9 9 9 12 6 5 17 8 5 8 12 13 13 9 3 5 3 8 24 18 12 13 17 20 17 17 9
24 23 27 30 28 23 21 21 8 6 6 5 4 7 4 4 5 14 12 5 7 14 12 10 2 12 8 9 14 19 21 17 14 6 6 7 27 18 9 20 22 22 17 16 16
22 24 24 31 22 15 17 18 10 3 5 6 12 7 6 5 5 7 15 7 5 16 4 10 10 2 8 15 12 16 7 8 15 6 6 4 17 20 9 13 21 22 16 19 20
22 24 23 33 7 23 17 16 8 6 7 9 11 8 11 11 7 8 9 4 9 9 10 8 9 18 15 6 9 7 4 7 7 12 11 20 11 3 3 12 16 18 19 18 21
23 18 20 19 16 17 22 17 8 7 10 6 8 15 16 11 5 8 14 1 2 5 4 5 2 8 10 14 13 3 2 2 1 5 11 18 13 26 12 22 11 15 22 16 18
25 19 15 7 19 21 22 16 12 9 2 11 13 20 28 16 8 12 22 16 11 11 15 7 14 1 3 5 10 7 6 3 4 7 14 6 13 29 9 10 13 14 17 16 13
25 23 14 7 6 22 15 13 14 12 10 5 11 18 23 13 14 6 18 14 14 3 5 12 6 16 10 16 5 17 17 5 9 7 6 3 13 20 14 19 25 25 23 21 14
25 12 11 10 9 17 17 20 11 20 11 13 19 20 11 10 11 13 8 18 15 11 10 8 9 0 3 5 10 6 15 23 8 3 5 7 10 13 23 23 14 16 18 21 22
12 11 14 15 11 13 14 14 12 9 12 13 10 10 19 23 7 20 17 14 11 22 1 6 3 5 4 6 12 17 5 5 8 8 12 8 8 14 18 19 8 13 18 23 26
11 8 7 14 8 10 12 10 6 4 16 6 8 9 8 17 17 20 17 11 28 12 12 6 5 3 6 10 13 10 16 8 4 10 10 12 11 16 26 25 20 22 23 22 22
9 8 8 17 13 3 8 9 13 8 3 4 7 6 14 16 18 14 19 15 16 17 25 12 3 5 11 2 10 14 19 22 13 12 8 16 22 27 19 8 9 17 19 19 11
5 4 7 17 13 5 5 5 16 10 11 7 4 4 4 15 11 13 11 7 9 21 14 14 6 2 9 3 4 11 16 17 18 16 22 18 17 30 13 13 15 22 22 20 15
4 7 4 9 8 4 11 9 16 8 9 6 6 5 9 11 4 17 8 5 9 19 10 20 5 10 13 5 4 8 21 20 20 16 22 18 32 40 31 19 21 29 20 13 15
3 4 6 7 12 17 8 16 18 11 4 5 4 4 10 7 6 5 6 5 3 15 10 11 7 8 13 9 6 7 10 15 23 26 20 30 27 40 34 21 23 22 25 21 20
5 4 1 6 12 18 13 15 22 13 13 14 9 11 8 10 18 10 17 6 7 5 14 6 5 5 14 8 11 17 20 18 23 27 22 33 36 51 26 14 11 12 10 14 17
2 1 3 12 14 14 13 19 24 23 2 17 14 11 4 5 8 12 6 9 8 10 7 7 6 4 8 4 2 10 21 19 20 24 22 27 47 34 29 25 27 27 22 12 13
Wind_Direction
215 212 215 219 223 221 226 228 223 204 206 227 331 20 9 77 323 309 248 215 180 348 325 332 21 4 34 343 7 111 85 198 198 170 234 172 201 161 122 114 221 201 173 290 124
216 216 212 215 216 214 212 216 225 233 206 209 207 316 274 129 308 262 252 269 223 326 20 91 315 42 74 321 317 124 175 213 195 187 201 343 192 184 153 122 249 247 102 112 139
215 215 214 211 209 210 209 213 220 235 221 202 177 216 254 87 328 252 241 269 223 221 262 72 103 114 172 104 221 170 216 198 244 198 132 193 274 181 141 198 222 212 167 162 161
214 212 213 212 208 205 205 202 211 233 236 196 170 188 194 83 216 317 328 246 147 128 118 126 138 135 155 196 192 225 265 201 326 5 327 167 154 246 197 229 180 221 162 168 176
211 210 210 210 206 202 200 196 206 224 216 191 168 179 153 181 253 323 89 97 106 115 155 152 154 156 185 186 143 191 270 300 72 344 324 324 244 215 245 276 38 144 156 181 193
211 206 206 204 202 199 198 193 202 209 205 189 175 186 139 222 307 316 113 69 80 114 134 158 196 188 193 198 189 143 278 276 265 196 253 289 270 136 264 171 161 171 195 196 197
214 203 202 199 199 199 194 191 197 195 204 195 179 131 224 227 64 76 123 43 90 137 148 230 207 216 138 144 115 57 298 315 211 195 231 191 272 192 240 178 194 213 219 213 211
220 208 199 197 195 196 189 187 190 185 193 196 170 105 228 235 139 113 111 47 98 102 161 155 90 101 359 139 83 154 149 259 53 142 241 163 253 241 234 188 228 214 214 220 215
223 215 204 195 191 190 184 183 178 180 189 177 109 205 234 106 165 153 169 177 148 342 61 65 72 139 166 121 312 210 246 212 295 199 184 187 154 298 256 207 241 236 221 221 232
227 220 206 195 186 182 174 169 169 159 135 78 11 162 168 214 183 162 188 170 160 132 83 157 174 182 191 189 215 214 226 300 228 333 279 252 238 279 276 226 234 248 242 218 218
222 207 205 199 188 177 162 135 135 196 196 189 170 243 150 77 115 139 167 157 136 167 180 188 202 212 206 226 248 98 85 226 348 312 291 266 279 245 249 264 253 240 245 226 222
227 216 207 198 190 180 165 183 183 165 180 226 346 254 164 177 129 185 156 176 178 198 140 174 230 214 211 222 237 246 254 264 273 266 287 309 280 273 224 248 250 251 238 241 230
229 226 209 199 188 185 181 183 144 125 124 225 204 213 176 158 194 190 183 141 187 191 197 200 177 162 182 209 232 238 242 250 260 322 280 320 287 268 234 231 253 253 239 238 227
236 222 201 191 184 179 187 172 160 108 103 209 191 240 189 154 259 174 193 143 199 205 158 247 243 96 207 215 200 240 212 248 252 275 262 161 282 276 275 249 232 252 241 230 230
237 218 206 198 179 183 173 167 131 44 198 189 168 157 155 172 135 197 175 176 184 176 164 215 185 211 228 212 182 241 233 197 191 227 273 252 275 295 26 264 247 239 246 226 226
233 216 214 203 208 177 151 148 102 150 217 174 147 169 161 179 193 137 171 86 132 175 290 209 246 174 211 209 203 73 238 308 161 222 234 236 206 280 235 253 251 242 248 240 228
215 229 235 174 206 161 155 147 189 196 245 171 182 175 181 173 154 178 177 193 179 182 201 174 217 279 209 164 199 183 163 253 229 208 241 163 190 245 262 252 269 258 258 251 236
202 218 222 245 139 150 159 173 204 145 192 151 159 167 187 169 187 176 182 193 214 138 126 211 292 195 181 209 171 202 205 189 201 200 247 150 214 241 264 254 252 254 254 264 243
200 218 200 217 182 166 176 198 178 163 172 132 134 157 175 188 182 177 196 210 211 185 178 175 249 333 212 156 192 178 207 223 292 275 288 242 278 293 276 267 262 256 256 257 250
192 209 208 179 197 183 200 202 154 188 132 142 145 169 181 178 141 185 184 209 217 202 196 200 279 204 155 113 218 208 130 190 204 239 246 242 243 250 275 272 282 267 258 258 259
188 207 184 168 198 194 209 192 151 234 143 194 131 137 176 176 181 186 190 219 204 184 179 167 155 304 129 208 187 193 235 242 239 228 246 256 251 240 255 264 269 264 264 262 261
183 202 173 166 201 175 212 161 163 184 144 118 102 101 171 168 176 195 207 198 187 166 197 184 126 200 217 271 191 215 217 214 222 225 241 255 256 269 262 274 300 293 282 277 273
184 162 192 179 208 169 127 161 178 148 173 143 122 144 182 161 176 209 186 214 163 181 180 162 217 346 329 300 240 208 226 231 232 254 250 257 267 265 261 267 279 279 281 280 291
150 174 224 194 189 166 168 177 168 174 160 127 118 97 113 164 238 187 181 197 180 183 172 163 168 197 215 180 124 190 229 226 229 243 251 245 254 265 261 265 275 279 283 268 269
211 193 175 181 182 201 191 160 175 160 157 162 79 166 151 147 171 175 144 135 134 182 165 176 210 201 252 275 298 241 243 236 234 240 240 256 246 259 263 260 266 273 277 289 288
172 163 124 169 153 191 200 187 180 166 164 191 140 194 180 167 197 166 166 155 162 171 187 192 250 187 264 259 239 258 260 251 241 251 250 255 267 250 274 272 274 273 273 275 284
143 112 178 166 174 177 202 195 192 174 278 205 173 145 155 183 137 149 170 153 161 148 149 150 157 141 263 163 223 275 237 238 247 239 244 247 248 268 264 258 258 265 265 251 260